timestamp,wind_dir_avg,wind_spd_avg,wind_spd_max_dir,wind_spd_gust,battery_voltage,lat,long
2024-01-31 00:04:00+00:00,36.0,10.48,33.0,12.87,12.25,47.59359,-54.27349
2024-01-31 00:14:00+00:00,32.0,11.09,32.0,12.38,12.25,47.59359,-54.27349
2024-01-31 00:24:00+00:00,36.0,11.3,37.0,13.89,12.25,47.59359,-54.27349
2024-01-31 00:34:00+00:00,39.0,11.27,32.0,12.69,12.25,47.59359,-54.27349
2024-01-31 00:44:00+00:00,37.0,11.34,39.0,13.19,12.25,47.59359,-54.27349
2024-01-31 00:54:00+00:00,40.0,10.75,33.0,11.83,12.25,47.59359,-54.27349
2024-01-31 01:04:00+00:00,39.0,10.07,35.0,12.13,12.25,47.59359,-54.27349
2024-01-31 01:14:00+00:00,32.0,11.83,33.0,13.63,12.25,47.59359,-54.27349
2024-01-31 01:24:00+00:00,35.0,10.44,34.0,12.6,12.25,47.59359,-54.27349
2024-01-31 01:34:00+00:00,35.0,10.87,33.0,12.32,12.25,47.59359,-54.27349
2024-01-31 01:44:00+00:00,32.0,11.7,31.0,13.52,12.25,47.59359,-54.27349
2024-01-31 01:54:00+00:00,39.0,11.11,36.0,12.5,12.25,47.59359,-54.27349
2024-01-31 02:04:00+00:00,33.0,11.76,31.0,13.39,12.25,47.59359,-54.27349
2024-01-31 02:14:00+00:00,32.0,11.45,28.0,13.71,12.17,47.59359,-54.27349
2024-01-31 02:24:00+00:00,39.0,10.89,40.0,12.62,12.17,47.59359,-54.27349
2024-01-31 02:34:00+00:00,38.0,10.8,34.0,12.31,12.17,47.59359,-54.27349
2024-01-31 02:44:00+00:00,40.0,10.33,45.0,12.09,12.17,47.59359,-54.27349
2024-01-31 02:54:00+00:00,45.0,11.01,42.0,11.99,12.17,47.59359,-54.27349
2024-01-31 03:04:00+00:00,39.0,10.39,33.0,12.22,12.17,47.59359,-54.27349
2024-01-31 03:14:00+00:00,39.0,10.37,45.0,11.82,12.17,47.59359,-54.27349
2024-01-31 03:24:00+00:00,46.0,10.77,36.0,12.48,12.17,47.59359,-54.27349
2024-01-31 03:34:00+00:00,39.0,9.51,42.0,12.12,12.17,47.59359,-54.27349
2024-01-31 03:44:00+00:00,41.0,9.32,39.0,10.69,12.17,47.59359,-54.27349
2024-01-31 03:54:00+00:00,40.0,10.69,40.0,12.34,12.17,47.59359,-54.27349
2024-01-31 04:04:00+00:00,40.0,9.01,40.0,10.49,12.17,47.59359,-54.27349
2024-01-31 04:14:01+00:00,30.0,10.88,31.0,12.12,12.17,47.59359,-54.27349
2024-01-31 04:24:01+00:00,32.0,9.66,32.0,11.05,12.17,47.59359,-54.27349
2024-01-31 04:34:01+00:00,34.0,10.37,34.0,12.52,12.17,47.59359,-54.27349
2024-01-31 04:44:01+00:00,32.0,9.84,31.0,11.34,12.17,47.59359,-54.27349
2024-01-31 04:54:01+00:00,32.0,9.64,22.0,11.39,12.17,47.59359,-54.27349
2024-01-31 05:04:01+00:00,32.0,9.05,39.0,10.52,12.17,47.59359,-54.27349
2024-01-31 05:14:00+00:00,29.0,10.07,31.0,11.45,12.17,47.59359,-54.27349
2024-01-31 05:24:00+00:00,24.0,10.05,27.0,11.54,12.17,47.59359,-54.27349
2024-01-31 05:34:00+00:00,32.0,9.06,32.0,11.06,12.17,47.59359,-54.27349
2024-01-31 05:44:00+00:00,32.0,10.07,31.0,11.35,12.17,47.59359,-54.27349
2024-01-31 05:54:00+00:00,34.0,9.32,35.0,10.72,12.17,47.59359,-54.27349
2024-01-31 06:04:00+00:00,30.0,9.78,37.0,11.55,12.17,47.59359,-54.27349
2024-01-31 06:14:00+00:00,28.0,9.35,34.0,10.16,12.09,47.59359,-54.27349
2024-01-31 06:24:00+00:00,33.0,9.0,37.0,10.62,12.09,47.59359,-54.27349
2024-01-31 06:34:00+00:00,30.0,8.77,35.0,10.84,12.09,47.59359,-54.27349
2024-01-31 06:44:00+00:00,30.0,9.62,32.0,10.64,12.09,47.59359,-54.27349
2024-01-31 06:54:00+00:00,31.0,9.67,33.0,11.13,12.09,47.59359,-54.27349
2024-01-31 07:04:00+00:00,42.0,9.28,47.0,10.44,12.09,47.59359,-54.27349
2024-01-31 07:14:00+00:00,31.0,9.88,33.0,11.01,12.09,47.59359,-54.27349
2024-01-31 07:24:00+00:00,29.0,9.46,36.0,10.71,12.09,47.59359,-54.27349
2024-01-31 07:34:00+00:00,30.0,8.63,28.0,9.79,12.09,47.59359,-54.27349
2024-01-31 07:44:00+00:00,37.0,9.55,39.0,10.7,12.09,47.59359,-54.27349
2024-01-31 07:54:00+00:00,43.0,8.73,36.0,10.52,12.09,47.59359,-54.27349
2024-01-31 08:04:00+00:00,40.0,9.51,48.0,10.98,12.09,47.59359,-54.27349
2024-01-31 08:14:00+00:00,36.0,9.54,38.0,11.14,12.09,47.59359,-54.27349
2024-01-31 08:24:00+00:00,43.0,8.47,45.0,9.55,12.09,47.59359,-54.27349
2024-01-31 08:34:00+00:00,25.0,8.87,18.0,10.65,12.09,47.59359,-54.27349
2024-01-31 08:44:00+00:00,31.0,9.49,29.0,10.33,12.09,47.59359,-54.27349
2024-01-31 08:54:00+00:00,28.0,9.26,34.0,10.05,12.09,47.59359,-54.27349
2024-01-31 09:04:00+00:00,32.0,9.66,33.0,11.06,12.09,47.59359,-54.27349
2024-01-31 09:14:01+00:00,31.0,10.39,32.0,11.66,12.01,47.59359,-54.27349
2024-01-31 09:24:01+00:00,34.0,9.52,34.0,10.56,12.01,47.59359,-54.27349
2024-01-31 09:34:01+00:00,34.0,9.66,35.0,11.15,12.01,47.59359,-54.27349
2024-01-31 09:44:01+00:00,13.0,9.09,10.0,10.66,12.01,47.59359,-54.27349
2024-01-31 09:54:01+00:00,13.0,9.8,10.0,11.52,12.01,47.59359,-54.27349
2024-01-31 10:04:01+00:00,19.0,8.24,25.0,9.52,12.01,47.59359,-54.27349
2024-01-31 10:14:00+00:00,18.0,8.37,24.0,9.2,11.93,47.59359,-54.27349
2024-01-31 10:24:00+00:00,14.0,9.89,8.0,11.15,11.93,47.59359,-54.27349
2024-01-31 10:34:00+00:00,3.0,9.57,351.0,10.85,11.93,47.59359,-54.27349
2024-01-31 10:44:00+00:00,21.0,8.04,29.0,8.9,11.93,47.59359,-54.27349
2024-01-31 10:54:00+00:00,12.0,9.5,13.0,10.81,11.93,47.59359,-54.27349
2024-01-31 11:04:00+00:00,7.0,8.46,7.0,9.93,11.93,47.59359,-54.27349
2024-01-31 11:14:00+00:00,2.0,8.86,358.0,10.48,11.93,47.59359,-54.27349
2024-01-31 11:24:00+00:00,5.0,8.23,25.0,9.29,11.93,47.59359,-54.27349
2024-01-31 11:34:00+00:00,5.0,8.1,12.0,9.55,11.93,47.59359,-54.27349
2024-01-31 11:44:00+00:00,5.0,7.34,348.0,8.69,11.93,47.59359,-54.27349
2024-01-31 11:54:00+00:00,0.0,7.62,22.0,9.67,11.93,47.59359,-54.27349
2024-01-31 12:04:00+00:00,1.0,7.36,21.0,8.93,11.93,47.59359,-54.27349
2024-01-31 12:14:00+00:00,4.0,6.44,22.0,8.3,12.01,47.59359,-54.27349
2024-01-31 12:24:00+00:00,354.0,6.38,350.0,8.3,12.01,47.59359,-54.27349
2024-01-31 12:34:00+00:00,350.0,6.67,346.0,8.05,12.01,47.59359,-54.27349
2024-01-31 12:44:00+00:00,355.0,7.31,358.0,9.87,12.01,47.59359,-54.27349
2024-01-31 12:54:00+00:00,355.0,7.37,340.0,8.91,12.01,47.59359,-54.27349
2024-01-31 13:04:00+00:00,354.0,7.53,344.0,8.25,12.01,47.59359,-54.27349
2024-01-31 13:14:00+00:00,355.0,6.75,348.0,8.64,13.05,47.59359,-54.27349
2024-01-31 13:24:00+00:00,358.0,6.2,351.0,7.62,13.05,47.59359,-54.27349
2024-01-31 13:34:00+00:00,349.0,6.22,340.0,7.78,13.05,47.59359,-54.27349
2024-01-31 13:44:00+00:00,353.0,5.88,341.0,7.37,13.05,47.59359,-54.27349
2024-01-31 13:54:00+00:00,33.0,6.18,33.0,6.86,13.05,47.59359,-54.27349
2024-01-31 14:04:00+00:00,340.0,3.92,332.0,4.76,13.05,47.59359,-54.27349
2024-01-31 14:14:00+00:00,344.0,3.9,334.0,5.55,13.92,47.59359,-54.27349
2024-01-31 14:24:00+00:00,340.0,3.47,347.0,4.25,13.92,47.59359,-54.27349
2024-01-31 14:34:00+00:00,359.0,3.89,357.0,4.85,13.92,47.59359,-54.27349
2024-01-31 14:44:00+00:00,2.0,3.81,342.0,4.37,13.92,47.59359,-54.27349
2024-01-31 14:54:00+00:00,351.0,3.33,350.0,3.9,13.92,47.59359,-54.27349
2024-01-31 15:04:00+00:00,2.0,3.51,5.0,4.14,13.92,47.59359,-54.27349
2024-01-31 15:14:00+00:00,347.0,2.37,356.0,2.86,13.6,47.59359,-54.27349
2024-01-31 15:24:00+00:00,348.0,3.51,345.0,4.35,13.6,47.59359,-54.27349
2024-01-31 15:34:00+00:00,353.0,1.76,7.0,2.66,13.6,47.59359,-54.27349
2024-01-31 15:44:00+00:00,356.0,2.37,2.0,2.82,13.6,47.59359,-54.27349
2024-01-31 15:54:00+00:00,348.0,3.03,351.0,3.79,13.6,47.59359,-54.27349
2024-01-31 16:04:00+00:00,313.0,4.54,318.0,5.52,13.6,47.59359,-54.27349
2024-01-31 16:14:00+00:00,350.0,3.36,319.0,4.52,14.0,47.59359,-54.27349
2024-01-31 16:24:00+00:00,350.0,2.34,340.0,3.38,14.0,47.59359,-54.27349
2024-01-31 16:34:00+00:00,325.0,4.98,323.0,6.13,14.0,47.59359,-54.27349
2024-01-31 16:44:00+00:00,319.0,5.61,302.0,7.41,14.0,47.59359,-54.27349
2024-01-31 16:54:00+00:00,323.0,5.28,299.0,8.83,14.0,47.59359,-54.27349
2024-01-31 17:04:00+00:00,340.0,4.01,348.0,4.77,14.0,47.59359,-54.27349
2024-01-31 17:14:00+00:00,339.0,4.5,347.0,5.12,13.68,47.59359,-54.27349
2024-01-31 17:24:00+00:00,342.0,5.01,332.0,5.8,13.68,47.59359,-54.27349
2024-01-31 17:34:00+00:00,341.0,4.35,342.0,5.37,13.68,47.59359,-54.27349
2024-01-31 17:44:00+00:00,346.0,4.59,351.0,5.72,13.68,47.59359,-54.27349
2024-01-31 17:54:00+00:00,337.0,5.11,336.0,6.25,13.68,47.59359,-54.27349
2024-01-31 18:04:00+00:00,342.0,4.08,352.0,5.01,13.68,47.59359,-54.27349
2024-01-31 18:14:00+00:00,345.0,5.35,344.0,6.29,14.4,47.59359,-54.27349
2024-01-31 18:24:00+00:00,328.0,5.27,306.0,7.21,14.4,47.59359,-54.27349
2024-01-31 18:34:00+00:00,339.0,5.28,325.0,6.14,14.4,47.59359,-54.27349
2024-01-31 18:44:00+00:00,325.0,4.93,308.0,8.05,14.4,47.59359,-54.27349
2024-01-31 18:54:00+00:00,351.0,4.23,341.0,5.25,14.4,47.59359,-54.27349
2024-01-31 19:04:00+00:00,310.0,5.03,302.0,6.72,14.4,47.59359,-54.27349
2024-01-31 19:14:00+00:00,310.0,5.73,302.0,7.29,14.32,47.59359,-54.27349
2024-01-31 19:24:00+00:00,333.0,5.41,313.0,7.25,14.32,47.59359,-54.27349
2024-01-31 19:34:00+00:00,305.0,5.43,300.0,6.59,14.32,47.59359,-54.27349
2024-01-31 19:44:00+00:00,301.0,6.64,303.0,7.58,14.32,47.59359,-54.27349
2024-01-31 19:54:00+00:00,295.0,5.9,301.0,6.75,14.32,47.59359,-54.27349
2024-01-31 20:04:00+00:00,288.0,5.81,297.0,6.36,14.32,47.59359,-54.27349
2024-01-31 20:14:00+00:00,303.0,5.86,300.0,7.31,13.37,47.59359,-54.27349
2024-01-31 20:24:00+00:00,299.0,6.58,301.0,7.19,13.37,47.59359,-54.27349
2024-01-31 20:34:00+00:00,295.0,6.3,294.0,6.87,13.37,47.59359,-54.27349
2024-01-31 20:44:00+00:00,307.0,5.39,301.0,6.83,13.37,47.59359,-54.27349
2024-01-31 20:54:00+00:00,299.0,4.9,297.0,6.04,13.37,47.59359,-54.27349
2024-01-31 21:04:00+00:00,287.0,6.01,287.0,6.83,13.37,47.59359,-54.27349
2024-01-31 21:14:00+00:00,293.0,6.22,292.0,6.78,12.41,47.59359,-54.27349
2024-01-31 21:24:00+00:00,284.0,5.0,285.0,6.68,12.41,47.59359,-54.27349
2024-01-31 21:34:00+00:00,287.0,5.05,293.0,6.89,12.41,47.59359,-54.27349
2024-01-31 21:44:00+00:00,278.0,5.65,281.0,6.05,12.41,47.59359,-54.27349
2024-01-31 21:54:00+00:00,295.0,5.59,293.0,6.39,12.41,47.59359,-54.27349
2024-01-31 22:04:00+00:00,294.0,4.56,289.0,6.11,12.41,47.59359,-54.27349
2024-01-31 22:14:00+00:00,355.0,1.96,359.0,2.34,12.33,47.59359,-54.27349
2024-01-31 22:24:00+00:00,10.0,1.42,8.0,1.75,12.33,47.59359,-54.27349
2024-01-31 22:34:00+00:00,0.0,1.22,358.0,1.49,12.33,47.59359,-54.27349
2024-01-31 22:44:00+00:00,292.0,5.33,291.0,6.79,12.33,47.59359,-54.27349
2024-01-31 22:54:00+00:00,288.0,4.42,288.0,5.62,12.33,47.59359,-54.27349
2024-01-31 23:04:00+00:00,294.0,4.23,280.0,5.98,12.33,47.59359,-54.27349
2024-01-31 23:14:00+00:00,289.0,4.34,282.0,5.23,12.33,47.59359,-54.27349
2024-01-31 23:24:00+00:00,275.0,5.43,282.0,6.5,12.33,47.59359,-54.27349
2024-01-31 23:34:00+00:00,275.0,3.75,278.0,5.42,12.33,47.59359,-54.27349
2024-01-31 23:44:00+00:00,274.0,2.75,275.0,4.85,12.33,47.59359,-54.27349
2024-01-31 23:54:00+00:00,267.0,5.56,264.0,6.85,12.33,47.59359,-54.27349
